User: anonymous   Login
Location: Caltech
(34.1382°N, 118.1253°W)
Time: 21:47:23
(UTC-07:00)
Language:

JAS-1B - Orbit

View from above orbital plane
View from above orbital plane
View from above satellite
View from above satellite

Ground track
Ground track

The orbit data is extracted from the following two-line orbital elements,

1 20480U 90013C   18116.47158718 -.00000027 +00000-0 +66804-5 0  9994
2 20480 099.0621 196.3638 0540706 041.8708 322.2462 12.83418294321862
Epoch (UTC): 26 April 2018 11:19:05
Eccentricity: 0.0540706
inclination: 99.0621°
perigee height: 911 km
apogee height: 1744 km
right ascension of ascending node: 196.3638°
argument of perigee: 41.8708°
revolutions per day: 12.83418294
mean anomaly at epoch: 322.2462°
orbit number at epoch: 32186

The dashed part of the orbit path shows where the satellite is in the earth's shadow,  

DLR